FW0803 Weather Reports


Display with metric or nautical units.
time (UTC)temp
F
wind
direction
speed
MPH
gust
MPH
rain 1hr
in
rain 24hr
in
rain mn
in
humidity
%
barometer
mb
20260507113132 63 334 3.0 6.0 0.00 0.00 0.00 82 1017.2
20260507112637 63 313 3.0 7.0 0.00 0.00 0.00 82 1017.2
20260507112131 62 347 3.0 7.0 0.00 0.00 0.00 82 1017.3
20260507111628 62 325 3.0 7.0 0.00 0.00 0.00 83 1017.5
20260507111111 62 317 3.0 7.0 0.00 0.00 0.00 84 1017.6
20260507110614 62 342 3.0 5.0 0.00 0.00 0.00 84 1017.7
20260507110059 62 339 2.0 5.0 0.00 0.00 0.00 84 1017.8
20260507105545 62 305 2.0 5.0 0.00 0.00 0.00 84 1017.8
20260507105031 63 335 2.0 6.0 0.00 0.00 0.00 83 1017.9
20260507104520 63 338 2.0 6.0 0.00 0.00 0.00 83 1018.0
20260507104014 63 330 2.0 6.0 0.00 0.00 0.00 83 1018.1
20260507103522 63 314 2.0 6.0 0.00 0.00 0.00 83 1018.1
20260507103020 63 292 2.0 4.0 0.00 0.00 0.00 83 1018.1
20260507101916 62 315 2.0 6.0 0.00 0.00 0.00 85 1018.2
20260507101421 63 323 2.0 6.0 0.00 0.00 0.00 84 1018.2
20260507100305 63 305 3.0 4.0 0.00 0.00 0.00 84 1018.3
20260507095811 63 290 2.0 4.0 0.00 0.00 0.00 84 1018.4
20260507095256 63 298 2.0 6.0 0.00 0.00 0.00 83 1018.4
20260507094754 63 323 2.0 6.0 0.00 0.00 0.00 84 1018.3
20260507094246 63 317 2.0 6.0 0.00 0.00 0.00 85 1018.3
20260507093740 63 290 2.0 6.0 0.00 0.00 0.00 86 1018.3
20260507093248 63 9 2.0 4.0 0.00 0.00 0.00 84 1018.2
20260507092747 63 347 2.0 4.0 0.00 0.00 0.00 84 1018.3
20260507092255 63 334 2.0 4.0 0.00 0.00 0.00 84 1018.3
20260507091805 63 329 1.0 4.0 0.00 0.00 0.00 84 1018.2
20260507091312 63 347 1.0 4.0 0.00 0.00 0.00 84 1018.2
20260507090809 63 323 1.0 3.0 0.00 0.00 0.00 84 1018.3
20260507085648 63 344 2.0 4.0 0.00 0.00 0.00 85 1018.3
20260507085130 63 312 2.0 4.0 0.00 0.00 0.00 85 1018.3
20260507084621 64 0 1.0 3.0 0.00 0.00 0.00 84 1018.3
20260507084114 64 328 1.0 3.0 0.00 0.00 0.00 85 1018.3
20260507083003 64 347 1.0 3.0 0.00 0.00 0.00 85 1018.4
20260507082508 64 323 1.0 4.0 0.00 0.00 0.00 86 1018.4
20260507082015 64 325 1.0 4.0 0.00 0.00 0.00 86 1018.3
20260507081517 64 336 1.0 4.0 0.00 0.00 0.00 86 1018.4
20260507081027 64 9 1.0 4.0 0.00 0.00 0.00 86 1018.4
20260507080517 64 341 1.0 3.0 0.00 0.00 0.00 86 1018.4
20260507080002 64 20 1.0 3.0 0.00 0.00 0.00 87 1018.4
20260507075507 64 15 1.0 3.0 0.00 0.00 0.00 88 1018.3
20260507075005 64 341 1.0 3.0 0.00 0.00 0.00 89 1018.4
20260507074508 64 344 1.0 3.0 0.00 0.00 0.00 91 1018.3
20260507074010 64 329 1.0 3.0 0.00 0.00 0.00 91 1018.2
20260507073519 64 342 1.0 3.0 0.00 0.00 0.00 92 1018.2
20260507073005 64 306 1.0 3.0 0.00 0.00 0.00 92 1018.2
20260507072514 64 313 2.0 3.0 0.00 0.00 0.00 92 1018.1
20260507071331 64 319 1.0 2.0 0.00 0.00 0.00 95 1018.0
20260507070217 65 304 0.0 3.0 0.00 0.00 0.00 95 1017.7
20260507065709 65 282 0.0 3.0 0.00 0.00 0.00 96 1017.8
20260507065155 65 266 1.0 3.0 0.00 0.00 0.00 96 1017.4
20260507064055 66 330 0.0 2.0 0.00 0.00 0.00 97 1017.3
20260507063559 67 9 0.0 2.0 0.00 0.00 0.00 97 1017.2
20260507063048 68 309 0.0 1.0 0.00 0.00 0.00 97 1017.1
20260507062540 68 9 0.0 1.0 0.00 0.00 0.00 97 1017.2
20260507062047 68 342 0.0 2.0 0.00 0.00 0.00 97 1017.0
20260507061554 68 341 0.0 2.0 0.00 0.02 0.00 97 1017.0
20260507060422 68 239 0.0 2.0 0.00 0.02 0.00 97 1016.9
20260507055919 68 266 0.0 2.0 0.00 0.02 0.00 96 1016.9
20260507055422 69 334 0.0 2.0 0.00 0.02 0.00 96 1016.7
20260507054923 69 325 0.0 1.0 0.00 0.02 0.00 96 1016.6
20260507053759 69 338 0.0 1.0 0.00 0.02 0.00 96 1016.4
20260507053240 69 9 0.0 0.0 0.00 0.02 0.00 96 1016.3
20260507052740 70 51 0.0 1.0 0.00 0.02 0.00 96 1016.3
20260507052222 70 51 0.0 0.0 0.00 0.02 0.00 96 1016.3
20260507051045 70 93 0.0 0.0 0.00 0.02 0.00 96 1016.2
20260507050552 70 178 0.0 2.0 0.00 0.02 0.00 96 1016.1
20260507045409 70 85 0.0 5.0 0.00 0.02 0.00 95 1016.1
20260507044914 70 9 1.0 5.0 0.00 0.02 0.00 95 1016.0
20260507044408 70 93 0.0 5.0 0.00 0.02 0.00 95 1015.8
20260507043915 71 93 0.0 2.0 0.00 0.02 0.00 95 1015.8
20260507043419 71 266 0.0 0.0 0.00 0.02 0.00 95 1015.6
20260507042920 71 9 0.0 2.0 0.00 0.02 0.00 95 1015.6
20260507042404 71 9 0.0 3.0 0.00 0.02 0.00 95 1015.6
20260507041905 71 51 0.0 3.0 0.00 0.02 0.00 95 1015.6
20260507041346 71 137 0.0 3.0 0.00 0.02 0.00 94 1015.6
20260507040846 71 93 0.0 3.0 0.00 0.02 0.00 94 1015.5
20260507040348 71 93 0.0 3.0 0.00 0.02 0.00 94 1015.5
20260507035849 71 93 0.0 3.0 0.00 0.02 0.00 94 1015.6
20260507035337 71 93 0.0 5.0 0.00 0.02 0.00 94 1015.6
20260507034231 72 108 0.0 5.0 0.00 0.02 0.00 93 1015.6
20260507033716 72 108 0.0 5.0 0.00 0.02 0.00 93 1015.5
20260507033211 72 93 0.0 5.0 0.00 0.02 0.00 93 1015.6
20260507032703 72 93 0.0 5.0 0.00 0.02 0.00 93 1015.4
20260507032212 72 325 2.0 8.0 0.00 0.02 0.00 93 1015.4
20260507031712 72 82 4.0 8.0 0.00 0.02 0.00 92 1015.4
20260507030535 73 84 2.0 8.0 0.00 0.02 0.00 91 1015.4
20260507030018 73 97 0.0 7.0 0.00 0.02 0.00 92 1015.3
20260507025510 73 9 0.0 6.0 0.00 0.02 0.00 91 1015.3
20260507025017 73 9 0.0 5.0 0.00 0.02 0.00 91 1015.3
20260507024510 73 334 0.0 5.0 0.00 0.02 0.00 91 1015.2
20260507023958 73 88 1.0 5.0 0.00 0.02 0.00 91 1015.1
20260507023503 73 101 2.0 5.0 0.00 0.02 0.00 93 1015.2
20260507023012 73 93 3.0 5.0 0.00 0.02 0.00 92 1015.2
20260507022511 73 99 2.0 7.0 0.00 0.02 0.00 91 1015.3
20260507022006 73 122 3.0 7.0 0.00 0.02 0.00 90 1015.3
20260507021509 73 86 3.0 8.0 0.00 0.02 0.00 90 1015.3
20260507021004 74 103 3.0 8.0 0.00 0.02 0.00 89 1015.2
20260507020500 74 137 3.0 8.0 0.00 0.02 0.00 88 1015.3
20260507015946 75 93 1.0 8.0 0.00 0.02 0.00 87 1015.2
20260507015434 75 51 2.0 8.0 0.00 0.02 0.00 86 1015.2
20260507014927 74 93 3.0 9.0 0.00 0.02 0.00 85 1015.3
20260507014410 75 86 2.0 9.0 0.00 0.02 0.00 86 1015.4
20260507013859 75 93 2.0 11.0 0.00 0.02 0.00 84 1015.2
20260507013352 76 9 1.0 11.0 0.00 0.02 0.00 82 1015.1
20260507012846 76 102 2.0 11.0 0.00 0.02 0.00 82 1015.1
20260507012338 77 93 2.0 11.0 0.00 0.02 0.00 81 1015.1
20260507011215 77 9 0.0 5.0 0.00 0.02 0.00 79 1015.2
20260507010707 77 68 0.0 5.0 0.00 0.02 0.00 78 1015.2
20260507005543 77 9 0.0 10.0 0.00 0.02 0.00 75 1015.3
20260507005038 77 77 2.0 10.0 0.00 0.02 0.00 78 1015.3
20260507004522 76 93 5.0 11.0 0.00 0.02 0.00 76 1015.2
20260507003404 77 92 4.0 12.0 0.00 0.02 0.00 80 1015.2
20260507002856 77 111 6.0 12.0 0.00 0.02 0.00 82 1015.4
20260507002343 77 92 6.0 12.0 0.00 0.02 0.00 81 1015.3
20260507001823 77 309 3.0 12.0 0.00 0.02 0.00 81 1015.3
20260507001318 77 93 3.0 9.0 0.00 0.02 0.00 80 1015.3
20260507000814 77 108 4.0 11.0 0.00 0.02 0.00 79 1015.3
20260507000306 77 341 4.0 11.0 0.00 0.02 0.00 81 1015.3
20260506235751 78 77 3.0 11.0 0.00 0.02 0.00 79 1015.3
20260506235300 78 93 2.0 11.0 0.00 0.02 0.00 80 1015.3
20260506234803 77 9 2.0 12.0 0.00 0.02 0.00 80 1015.4
20260506234248 78 95 3.0 12.0 0.00 0.02 0.00 80 1015.5
20260506233730 78 105 4.0 12.0 0.00 0.02 0.00 79 1015.7
20260506232554 78 98 3.0 11.0 0.00 0.02 0.00 80 1016.0
20260506232039 78 105 4.0 11.0 0.00 0.02 0.00 82 1015.9
20260506231532 78 90 2.0 11.0 0.00 0.02 0.00 79 1016.0
20260506231012 78 0 2.0 10.0 0.00 0.02 0.00 80 1016.1
20260506230459 78 93 3.0 11.0 0.00 0.02 0.00 81 1016.1
20260506230002 78 93 1.0 11.0 0.00 0.02 0.00 82 1016.3
20260506225459 78 88 3.0 11.0 0.00 0.02 0.00 83 1016.2
20260506225006 77 319 4.0 11.0 0.00 0.02 0.00 80 1016.1
20260506224458 78 110 4.0 10.0 0.00 0.02 0.00 81 1016.0
20260506223938 78 108 4.0 10.0 0.00 0.02 0.00 78 1016.0
20260506223446 78 51 3.0 10.0 0.00 0.02 0.00 76 1016.3
20260506222946 78 93 2.0 10.0 0.00 0.02 0.00 76 1016.2
20260506222436 77 325 2.0 10.0 0.00 0.02 0.00 75 1016.3
20260506221926 77 103 4.0 10.0 0.00 0.02 0.00 77 1016.5
20260506221421 77 92 4.0 12.0 0.00 0.02 0.00 80 1016.3
20260506220909 76 9 5.0 12.0 0.00 0.02 0.00 79 1016.3
20260506215753 77 88 4.0 12.0 0.00 0.02 0.00 80 1016.7
20260506215240 77 93 4.0 11.0 0.00 0.02 0.00 80 1016.8
20260506214748 76 83 4.0 10.0 0.00 0.02 0.00 78 1016.9
20260506214246 77 92 2.0 10.0 0.00 0.02 0.00 77 1016.8
20260506213752 77 61 3.0 10.0 0.00 0.02 0.00 80 1016.9
20260506213236 76 93 5.0 12.0 0.00 0.02 0.00 81 1017.0
20260506212117 77 93 5.0 12.0 0.00 0.02 0.00 81 1016.9
20260506211625 77 101 6.0 12.0 0.00 0.02 0.00 80 1016.8
20260506211128 76 88 7.0 14.0 0.00 0.02 0.00 79 1016.9
20260506210619 76 93 8.0 14.0 0.00 0.02 0.00 75 1016.8
20260506210116 77 110 7.0 14.0 0.00 0.02 0.00 73 1016.8
20260506205622 77 90 5.0 14.0 0.00 0.02 0.00 71 1016.8
20260506205123 77 153 5.0 12.0 0.00 0.02 0.00 74 1017.0
20260506204630 76 92 5.0 12.0 0.00 0.02 0.00 76 1017.2
20260506204124 77 99 6.0 12.0 0.00 0.02 0.00 77 1017.2
20260506203617 77 88 7.0 12.0 0.00 0.02 0.00 76 1017.1
20260506203116 77 93 6.0 12.0 0.00 0.02 0.00 75 1017.0
20260506202625 77 90 6.0 12.0 0.00 0.02 0.00 74 1017.0
20260506202134 77 93 6.0 12.0 0.00 0.02 0.00 76 1017.0
20260506201635 77 93 6.0 12.0 0.00 0.02 0.00 76 1016.8
20260506201122 78 92 4.0 9.0 0.00 0.02 0.00 70 1016.8
20260506200611 77 93 4.0 9.0 0.00 0.02 0.00 70 1016.9
20260506200059 77 175 4.0 9.0 0.00 0.02 0.00 69 1016.9
20260506195609 78 92 3.0 9.0 0.00 0.02 0.00 71 1016.8
20260506195116 77 93 2.0 9.0 0.00 0.02 0.00 71 1016.9
20260506194608 77 93 2.0 9.0 0.00 0.02 0.00 72 1017.0
20260506194106 77 129 3.0 9.0 0.00 0.02 0.00 71 1017.0
20260506193549 77 96 2.0 9.0 0.00 0.02 0.00 73 1017.2
20260506192443 76 171 3.0 8.0 0.00 0.02 0.00 71 1017.1
20260506191949 77 101 4.0 8.0 0.00 0.02 0.00 75 1017.1
20260506191455 77 90 2.0 8.0 0.00 0.02 0.00 75 1017.0
20260506190949 76 128 1.0 6.0 0.00 0.02 0.00 61 1017.0
20260506190441 76 205 2.0 6.0 0.00 0.02 0.00 62 1017.0
20260506185943 76 221 2.0 6.0 0.00 0.02 0.00 58 1016.9
20260506185427 76 147 3.0 5.0 0.00 0.02 0.00 63 1017.1
20260506183706 74 188 2.0 6.0 0.00 0.03 0.00 74 1017.1
20260506183155 74 194 3.0 6.0 0.00 0.03 0.00 73 1017.0
20260506182655 74 184 2.0 6.0 0.00 0.03 0.00 75 1017.1
20260506182148 73 184 2.0 4.0 0.00 0.03 0.00 83 1017.0
20260506181657 73 232 1.0 4.0 0.00 0.03 0.00 86 1017.0
20260506181139 73 226 1.0 3.0 0.00 0.03 0.00 86 1017.0
20260506180647 72 227 1.0 3.0 0.00 0.03 0.00 87 1016.9
20260506180147 72 80 1.0 6.0 0.00 0.03 0.00 86 1017.0
20260506175657 72 105 1.0 6.0 0.00 0.03 0.00 87 1016.8
20260506175155 72 51 1.0 6.0 0.00 0.03 0.00 87 1016.9
20260506174643 72 90 0.0 6.0 0.00 0.03 0.00 88 1016.8
20260506174144 71 129 0.0 3.0 0.00 0.03 0.00 87 1016.7
20260506173627 70 124 0.0 3.0 0.00 0.03 0.00 89 1016.5
20260506173111 69 93 1.0 3.0 0.00 0.03 0.00 91 1016.4
20260506172556 68 294 2.0 3.0 0.00 0.03 0.00 90 1016.5
20260506171408 67 325 2.0 4.0 0.00 0.03 0.00 90 1016.3
20260506170911 67 328 2.0 4.0 0.00 0.03 0.00 90 1016.3
20260506170353 67 311 3.0 4.0 0.00 0.03 0.00 91 1016.2
20260506165847 66 301 3.0 4.0 0.00 0.03 0.00 91 1016.3
20260506164107 64 305 3.0 4.0 0.00 0.03 0.00 92 1016.1
20260506163604 64 340 3.0 4.0 0.00 0.03 0.00 93 1016.1
20260506163105 64 294 3.0 4.0 0.00 0.03 0.00 93 1016.1
20260506162547 64 317 2.0 6.0 0.00 0.03 0.00 93 1015.9
20260506162039 63 328 3.0 6.0 0.00 0.03 0.00 93 1015.8
20260506161542 63 319 3.0 6.0 0.00 0.03 0.00 93 1015.8
20260506161049 63 311 3.0 5.0 0.00 0.03 0.00 93 1015.7
20260506160551 63 279 2.0 5.0 0.00 0.03 0.00 93 1015.8
20260506160059 63 341 2.0 5.0 0.00 0.03 0.00 93 1015.6
20260506155601 63 329 2.0 5.0 0.00 0.03 0.00 94 1015.6
20260506153824 64 329 2.0 5.0 0.00 0.03 0.00 92 1015.3
20260506153324 64 301 1.0 4.0 0.00 0.03 0.00 93 1015.3
20260506152825 64 317 1.0 3.0 0.00 0.03 0.00 93 1015.3
20260506152320 64 332 1.0 6.0 0.00 0.03 0.00 94 1015.3
20260506151813 64 340 1.0 6.0 0.00 0.03 0.00 93 1015.3
20260506151319 64 87 2.0 6.0 0.00 0.03 0.00 93 1015.3
20260506150801 64 304 3.0 6.0 0.00 0.03 0.00 94 1015.3
20260506150244 64 333 2.0 4.0 0.00 0.03 0.00 94 1015.2
20260506145750 64 9 3.0 4.0 0.00 0.03 0.00 94 1015.2
20260506145258 64 329 3.0 6.0 0.00 0.03 0.00 94 1015.3
20260506144806 64 341 3.0 6.0 0.00 0.05 0.00 93 1015.3
20260506144254 65 328 3.0 6.0 0.00 0.05 0.00 93 1015.3
20260506143755 65 294 3.0 6.0 0.00 0.06 0.00 93 1015.2
20260506143256 65 319 2.0 4.0 0.00 0.06 0.00 93 1015.2
20260506142741 65 325 1.0 3.0 0.00 0.06 0.00 93 1015.2
20260506142239 65 288 1.0 3.0 0.00 0.08 0.00 94 1015.2
20260506141747 65 265 1.0 7.0 0.00 0.08 0.00 95 1015.3
20260506141241 65 273 2.0 7.0 0.00 0.09 0.00 95 1015.3
20260506140725 65 239 3.0 7.0 0.00 0.09 0.00 95 1015.2
20260506140235 65 219 3.0 7.0 0.00 0.09 0.00 95 1015.2
20260506135719 64 215 3.0 5.0 0.00 0.09 0.00 96 1015.3
20260506134604 65 207 0.0 1.0 0.00 0.12 0.00 95 1015.4
20260506134059 65 0 0.0 3.0 0.00 0.13 0.00 96 1015.3
20260506132308 64 246 0.0 3.0 0.00 0.18 0.00 96 1015.4
20260506131755 64 309 0.0 2.0 0.00 0.18 0.00 97 1015.4
20260506131238 64 286 0.0 2.0 0.00 0.18 0.00 97 1015.2
20260506130120 64 342 0.0 2.0 0.00 0.21 0.00 97 1015.3
20260506125611 64 325 0.0 1.0 0.00 0.22 0.00 96 1015.4
20260506125055 64 265 0.0 4.0 0.00 0.22 0.00 96 1015.2
20260506124602 64 273 1.0 4.0 0.00 0.23 0.00 96 1015.2
20260506124051 64 316 1.0 4.0 0.00 0.23 0.00 96 1015.2
20260506123548 64 9 0.0 3.0 0.00 0.23 0.00 96 1015.1
20260506123053 64 325 0.0 4.0 0.00 0.23 0.00 96 1015.1
20260506122542 64 330 1.0 4.0 0.00 0.23 0.00 96 1015.1
20260506122047 64 93 2.0 4.0 0.00 0.24 0.00 95 1015.0
20260506121557 64 325 2.0 4.0 0.00 0.25 0.00 96 1015.0
20260506121046 64 309 2.0 3.0 0.00 0.26 0.00 96 1015.0
20260506120529 64 329 1.0 3.0 0.00 0.29 0.00 96 1015.0
20260506120035 64 294 1.0 3.0 0.00 0.32 0.00 97 1015.1
20260506115526 64 273 2.0 3.0 0.00 0.32 0.00 97 1015.2
20260506115035 64 309 2.0 3.0 0.00 0.32 0.00 97 1015.2